Home > Time Zones > World Clock > Weather > Norway > Alta > Past weeks

Flag for Norway Weather past 2 weeks in Alta, Norway

Now
52 °F

Cool.


Feels Like: 50 °F
Forecast: 50 / 56 °F
Wind: 7 mph from North

Location: Alta Lufthavn

Current Time: Aug 1, 2015 at 4:05:16 PM

Latest Report: Aug 1, 2015 at 3:00 PM


Visibility: N/A

Pressure: 29.85 "Hg

Humidity: 87%

Dew point: 48 °F

Location of AltaLocation

Historic Weather in Alta — Graph

°F

Alta temperature yesterday

Maximum temperature yesterday: 68 °F (at 5:00 PM)
Minimum temperature yesterday: 53 °F (at 2:00 AM)
Average temperature yesterday: 61 °F

Past Weeks' High & Low Weather Summary

 TemperatureHumidityPressure
High69 °F (Jul 28, 7:00 PM)95% (Jul 29, 5:00 PM)30.00 "Hg (Jul 29, 5:00 PM)
Low46 °F (Jul 24, 3:00 AM)46% (Jul 17, 2:00 PM)29.53 "Hg (Jul 19, 8:00 AM)
Average57 °F71%29.71 "Hg
* Reported Jul 17 2:00 PM — Aug 1 2:00 PM, Alta, Weather by CustomWeather, © 2015

Note: Actual official high and low records may vary slightly from our data, if they occured in-between our weather recording intervals... More about our weather records

Advertising

Alta weather history for previous 24 hours

 ConditionsComfort  
Time TempWeatherWind HumidityBarometerVisibility
2:00 PM
Sat, Aug 1
52 °FCool.7 mph87%29.85 "HgN/A
1:00 PM51 °FCool.6 mph87%29.84 "HgN/A
12:00 PM52 °FCool.5 mph80%29.83 "HgN/A
11:00 AM52 °FCool.7 mph85%29.83 "HgN/A
10:00 AM53 °FCool.12 mph86%29.81 "HgN/A
9:00 AM53 °FCool.9 mph86%29.80 "HgN/A
8:00 AM54 °FCool.7 mph81%29.79 "HgN/A
7:00 AM55 °FCool.7 mph83%29.78 "HgN/A
5:00 AM55 °FCool.6 mph84%29.78 "HgN/A
4:00 AM55 °FCool.7 mph83%29.77 "HgN/A
3:00 AM55 °FCool.8 mph84%29.76 "HgN/A
2:00 AM55 °FCool.6 mph79%29.76 "HgN/A
1:00 AM56 °FCool.5 mph71%29.73 "HgN/A
12:00 AM58 °FCool.3 mph67%29.72 "HgN/A
11:00 PM
Fri, Jul 31
60 °FCool.2 mph61%29.70 "HgN/A
10:00 PM60 °FCool.5 mph65%29.69 "HgN/A
9:00 PM64 °FMild.2 mph59%29.67 "HgN/A
8:00 PM64 °FMild.6 mph56%29.66 "HgN/A
7:00 PM65 °FMild.5 mph54%29.65 "HgN/A
6:00 PM66 °FMild.5 mph55%29.65 "HgN/A
5:00 PM68 °FMild.5 mph49%29.65 "HgN/A
4:00 PM67 °FMild.6 mph51%29.64 "HgN/A
Weather by CustomWeather, © 2015

See weather overviewHow to use our weather pages